星链-30368 (STARLINK-30368 )

导读

STARLINK-30368是美国SpaceX公司星链星座中的一员,于2023年9月1日发射升空,属于星链低轨互联网卫星星座的组网卫星。星链项目旨在通过低地球轨道卫星群为全球提供高速低延迟宽带互联网接入,该卫星运行在约550公里的近地轨道,承担着全球网络覆盖与数据通信传输任务,助力星链实现偏远地区网络覆盖、特殊场景通信支撑等应用,是SpaceX构建全球卫星互联网的重要组成部分。

Basic Information
目录编号:
57752
目录名称:
STARLINK-30368
国际标识:
2023-131W
轨道中心:
EARTH
卫星名称:
星链-30368
卫星全名:
星链-30368 (STARLINK-30368 )
卫星状态:
在轨 (已飞行1106 天)
发射日期:
2023-09-01 UTC
国别 :
美国 (US)
星等 :
--
This satellite is enrolled in the Space Conjunction Data Service (SCDS) and the current flight risk assessment level is: No High Risk
Orbit Information
数据来源 国际轨道数据 AOE轨道数据
星历时间 2026-09-11T14:10:39+0800
8小时前
查看轨道信息
2026-09-10T23:00:00+0800
23小时前
查看轨道信息
半长轴 6861.193km 6861.22km
偏心率 0.000123 0.0001069
轨道倾角 43.004° 43.001°
近地点辐角 265.443° 248.426°
升交点赤经 204.693° 208.268°
平近点角 94.628° 229.805°
近地点 482.212km 482.349km
远地点 483.9km 483.817km
周期 94.267分钟 94.267分钟
每日圈数 15.275779 15.275688
Detailed Information
固有亮度:
5
最大亮度:
0.3
卫星平台:
Starlink v2.0 mini
覆盖范围:
全球
运营商:
太空探索技术公司
运营商所在国:
美国
制造商(研发单位):
太空探索技术公司
制造商所在国:
美国
使用方式:
暂无
Satellite Introduction
星链(Starlink)计划是由太空探索技术公司(SpaceX)提出的一个巨型低轨卫星互联网星座项目,计划在2019年至2024年间在太空搭建由约1.2万颗卫星组成的“星链”网络,其中1584颗将部署在地球上空550千米处的近地轨道,并从2020年开始工作。该卫星仍在工作。
2D Orbit Map
3D Orbit Map
Orbit Altitude Analysis Chart
Orbit Inclination Analysis Chart
Orbit Comprehensive Analysis Chart
View Comprehensive Chart
Miss Distance Evolution Trend with All Objects
Collision Probability Evolution Trend with All Objects